LOT1203 EYVI-EPRZ

Flight info

Callsign LOT1203
Flight time N/A
Altitude 36000
Route UPASI DCT VABER L735 SUWGI M857 VENES N195 VELAX
Aircraft B38M/M-SDE1FGHILORVWXY/HB1

Departure

Time 2026-04-30 14:23
Airport Vilnius International Airport (EYVI)

Arrival

Time N/A
Airport Rzeszów-Jasionka Airport (EPRZ)
Time Latitude Longitude Altitude Speed Heading
2026-04-30 13:50 54.64239 25.28118 638 ft 0 kts
2026-04-30 14:07 54.64215 25.28123 641 ft 2 kts 345°
2026-04-30 14:07 54.64200 25.28134 640 ft 2 kts 328°
2026-04-30 14:07 54.64187 25.28152 642 ft 2 kts 310°
2026-04-30 14:08 54.64173 25.28203 642 ft 2 kts 278°
2026-04-30 14:08 54.64173 25.28228 640 ft 1 kts 264°
2026-04-30 14:08 54.64173 25.28231 641 ft 0 kts 260°
2026-04-30 14:16 54.64172 25.28218 640 ft 0 kts 260°
2026-04-30 14:16 54.64171 25.28217 640 ft 1 kts 260°
2026-04-30 14:16 54.64161 25.28190 644 ft 5 kts 224°
2026-04-30 14:16 54.64114 25.28172 647 ft 9 kts 178°
2026-04-30 14:17 54.64045 25.28196 647 ft 12 kts 164°
2026-04-30 14:17 54.63950 25.28232 639 ft 16 kts 168°
2026-04-30 14:17 54.63839 25.28274 636 ft 16 kts 167°
2026-04-30 14:17 54.63722 25.28321 628 ft 17 kts 167°
2026-04-30 14:18 54.63611 25.28360 629 ft 13 kts 171°
2026-04-30 14:18 54.63500 25.28326 617 ft 19 kts 202°
2026-04-30 14:18 54.63212 25.28118 611 ft 25 kts 201°
2026-04-30 14:19 54.63051 25.28009 614 ft 5 kts 201°
2026-04-30 14:19 54.63004 25.27976 620 ft 9 kts 202°
2026-04-30 14:19 54.62928 25.27925 606 ft 14 kts 199°
2026-04-30 14:20 54.62824 25.27854 604 ft 18 kts 202°
2026-04-30 14:20 54.62696 25.27762 604 ft 21 kts 201°
2026-04-30 14:20 54.62539 25.27667 617 ft 5 kts 179°
2026-04-30 14:21 54.62502 25.27687 620 ft 6 kts 151°
2026-04-30 14:21 54.62467 25.27730 616 ft 7 kts 140°
2026-04-30 14:21 54.62424 25.27864 611 ft 7 kts 68°
2026-04-30 14:22 54.62453 25.27907 607 ft 1 kts 20°
2026-04-30 14:22 54.62724 25.28094 603 ft 86 kts 22°
2026-04-30 14:22 54.63548 25.28671 646 ft 162 kts 21°
2026-04-30 14:23 54.66012 25.30502 2467 ft 203 kts 18°
2026-04-30 14:23 54.68683 25.32196 4686 ft 222 kts 18°
2026-04-30 14:24 54.71644 25.34218 6880 ft 231 kts 20°
2026-04-30 14:24 54.73152 25.35255 7980 ft 234 kts 20°
2026-04-30 14:25 54.76479 25.36145 9728 ft 256 kts 344°
2026-04-30 14:25 54.79220 25.32063 11281 ft 293 kts 298°
2026-04-30 14:26 54.78955 25.24735 12993 ft 334 kts 244°
2026-04-30 14:26 54.77377 25.21680 13846 ft 350 kts 217°
2026-04-30 14:26 54.72684 25.18975 14994 ft 363 kts 198°
2026-04-30 14:27 54.70290 25.17556 15150 ft 364 kts 200°
2026-04-30 14:27 54.67914 25.16034 15278 ft 365 kts 201°
2026-04-30 14:27 54.65548 25.14458 15321 ft 365 kts 202°
2026-04-30 14:28 54.60821 25.11237 15320 ft 365 kts 202°
2026-04-30 14:28 54.58471 25.09575 15318 ft 364 kts 207°
2026-04-30 14:28 54.56464 25.07014 15310 ft 357 kts 232°
2026-04-30 14:28 54.55171 25.03444 15323 ft 349 kts 252°
2026-04-30 14:29 54.53413 24.95708 15336 ft 349 kts 255°
2026-04-30 14:29 54.51983 24.89150 15331 ft 349 kts 255°
2026-04-30 14:30 54.49182 24.76113 15354 ft 350 kts 255°
2026-04-30 14:31 54.47490 24.68247 15868 ft 353 kts 255°
2026-04-30 14:31 54.45771 24.60278 16698 ft 358 kts 255°
2026-04-30 14:31 54.44898 24.56250 17115 ft 361 kts 255°
2026-04-30 14:32 54.44184 24.52953 17467 ft 363 kts 255°
2026-04-30 14:32 54.43983 24.52027 17562 ft 364 kts 255°
2026-04-30 14:32 54.43094 24.47936 18001 ft 367 kts 255°
2026-04-30 14:33 54.42196 24.43812 18452 ft 370 kts 255°
2026-04-30 14:33 54.40369 24.35447 19249 ft 377 kts 255°
2026-04-30 14:33 54.39441 24.31211 19654 ft 380 kts 256°
2026-04-30 14:34 54.38511 24.26943 20065 ft 384 kts 256°
2026-04-30 14:34 54.37577 24.22632 20476 ft 387 kts 256°
2026-04-30 14:34 54.36646 24.18340 20890 ft 391 kts 256°
2026-04-30 14:34 54.35689 24.13940 21318 ft 395 kts 256°
2026-04-30 14:35 54.34064 24.06496 22049 ft 401 kts 256°
2026-04-30 14:35 54.32756 24.00526 22635 ft 406 kts 256°
2026-04-30 14:35 54.31755 23.95965 23107 ft 411 kts 256°
2026-04-30 14:36 54.30742 23.91358 23568 ft 415 kts 256°
2026-04-30 14:36 54.29717 23.86713 24027 ft 419 kts 257°
2026-04-30 14:36 54.28680 23.82018 24421 ft 424 kts 257°
2026-04-30 14:36 54.27631 23.77282 24832 ft 428 kts 257°
2026-04-30 14:37 54.26566 23.72488 25246 ft 432 kts 257°
2026-04-30 14:37 54.25496 23.67677 25665 ft 436 kts 257°
2026-04-30 14:37 54.24423 23.62867 26090 ft 440 kts 257°
2026-04-30 14:37 54.23326 23.57962 26523 ft 444 kts 257°
2026-04-30 14:38 54.22216 23.53009 26971 ft 447 kts 257°
2026-04-30 14:38 54.21098 23.48029 27421 ft 449 kts 257°
2026-04-30 14:38 54.19984 23.43074 27877 ft 449 kts 257°
2026-04-30 14:38 54.18790 23.38103 28347 ft 452 kts 255°
2026-04-30 14:39 54.17575 23.33149 28824 ft 452 kts 256°
2026-04-30 14:39 54.16364 23.28185 29319 ft 453 kts 256°
2026-04-30 14:39 54.15151 23.23214 29817 ft 454 kts 256°
2026-04-30 14:40 54.12716 23.13267 30783 ft 453 kts 256°
2026-04-30 14:40 54.11518 23.08389 31221 ft 452 kts 256°
2026-04-30 14:40 54.10306 23.03465 31682 ft 450 kts 256°
2026-04-30 14:40 54.08987 22.98614 32111 ft 456 kts 245°
2026-04-30 14:41 54.07040 22.94302 32550 ft 463 kts 227°
2026-04-30 14:41 54.04538 22.90855 33025 ft 462 kts 211°
2026-04-30 14:41 54.01661 22.88550 33503 ft 453 kts 194°
2026-04-30 14:41 53.98654 22.87122 34017 ft 446 kts 190°
2026-04-30 14:42 53.95668 22.85842 34517 ft 439 kts 189°
2026-04-30 14:42 53.92712 22.84648 34943 ft 433 kts 188°
2026-04-30 14:42 53.89796 22.83507 35375 ft 426 kts 188°
2026-04-30 14:42 53.86929 22.82407 35807 ft 419 kts 188°
2026-04-30 14:43 53.84097 22.81333 36189 ft 414 kts 188°
2026-04-30 14:43 53.81300 22.80276 36421 ft 412 kts 189°
2026-04-30 14:43 53.75661 22.78150 36431 ft 423 kts 189°
2026-04-30 14:44 53.69814 22.75951 36387 ft 436 kts 189°
2026-04-30 14:44 53.63831 22.73707 36384 ft 448 kts 189°
2026-04-30 14:45 53.57660 22.71399 36384 ft 460 kts 189°
2026-04-30 14:45 53.51326 22.69038 36382 ft 471 kts 189°
2026-04-30 14:46 53.45910 22.67025 36380 ft 480 kts 189°
2026-04-30 14:46 53.39305 22.64576 36383 ft 490 kts 189°
2026-04-30 14:47 53.32674 22.62126 36383 ft 491 kts 189°
2026-04-30 14:47 53.26002 22.59668 36381 ft 490 kts 189°
2026-04-30 14:48 53.19341 22.57222 36383 ft 490 kts 189°
2026-04-30 14:48 53.12687 22.54785 36383 ft 489 kts 189°
2026-04-30 14:49 53.06039 22.52358 36384 ft 488 kts 189°
2026-04-30 14:49 52.99438 22.49957 36382 ft 488 kts 189°
2026-04-30 14:50 52.89486 22.46350 36385 ft 487 kts 189°
2026-04-30 14:51 52.79553 22.42766 36387 ft 486 kts 189°
2026-04-30 14:52 52.69640 22.39209 36386 ft 486 kts 189°
2026-04-30 14:52 52.59742 22.35677 36372 ft 485 kts 189°
2026-04-30 14:53 52.49851 22.32157 36376 ft 484 kts 189°
2026-04-30 14:54 52.36722 22.27515 36376 ft 483 kts 189°
2026-04-30 14:55 52.26850 22.24044 36377 ft 483 kts 189°
2026-04-30 14:56 52.13714 22.19598 36368 ft 481 kts 187°
2026-04-30 14:56 52.07162 22.17659 36376 ft 470 kts 188°
2026-04-30 14:57 52.03960 22.16704 36383 ft 464 kts 188°
2026-04-30 14:58 51.91323 22.12940 36371 ft 460 kts 188°
2026-04-30 14:58 51.81923 22.10155 36366 ft 459 kts 188°
2026-04-30 15:00 51.66161 22.05566 34314 ft 472 kts 187°
2026-04-30 15:00 51.59591 22.03657 32279 ft 481 kts 187°
2026-04-30 15:01 51.53070 22.01766 30491 ft 472 kts 187°
2026-04-30 15:01 51.49845 22.00832 29486 ft 468 kts 187°
2026-04-30 15:01 51.43507 21.99001 27585 ft 457 kts 187°
2026-04-30 15:02 51.40391 21.98123 26704 ft 452 kts 187°
2026-04-30 15:02 51.37352 21.97279 25950 ft 444 kts 187°
2026-04-30 15:03 51.28635 21.94857 24776 ft 411 kts 187°
2026-04-30 15:03 51.23024 21.93301 23994 ft 407 kts 187°
2026-04-30 15:04 51.17476 21.91793 23116 ft 401 kts 184°
2026-04-30 15:04 51.10104 21.95611 22057 ft 365 kts 144°
2026-04-30 15:05 51.03684 22.01529 21066 ft 338 kts 143°
2026-04-30 15:06 50.99760 22.05178 20458 ft 315 kts 142°
2026-04-30 15:06 50.95984 22.08688 19843 ft 322 kts 143°
2026-04-30 15:07 50.92071 22.12317 19241 ft 326 kts 143°
2026-04-30 15:07 50.88243 22.15858 18648 ft 307 kts 142°
2026-04-30 15:08 50.84676 22.19169 18008 ft 287 kts 142°
2026-04-30 15:08 50.79467 22.24000 17110 ft 304 kts 143°
2026-04-30 15:09 50.75766 22.27415 16548 ft 313 kts 144°
2026-04-30 15:09 50.71977 22.30909 15960 ft 313 kts 144°
2026-04-30 15:10 50.68240 22.34348 15367 ft 313 kts 145°
2026-04-30 15:11 50.60792 22.41183 14160 ft 306 kts 145°
2026-04-30 15:11 50.57211 22.44460 13515 ft 286 kts 145°
2026-04-30 15:12 50.51993 22.49226 12667 ft 295 kts 146°
2026-04-30 15:13 50.48253 22.51778 12023 ft 303 kts 174°
2026-04-30 15:14 50.39963 22.50623 10853 ft 295 kts 185°
2026-04-30 15:14 50.33881 22.49655 9912 ft 284 kts 185°
2026-04-30 15:16 50.24998 22.48245 8596 ft 232 kts 186°
2026-04-30 15:17 50.19020 22.47294 7638 ft 203 kts 186°
2026-04-30 15:18 50.12134 22.46148 6124 ft 195 kts 197°
2026-04-30 15:19 50.10571 22.41479 5317 ft 167 kts 272°